| time (UTC) | temp C | wind direction | speed KPH | gust KPH | rain 1hr cm | rain 24hr cm | rain mn cm | humidity % | barometer mb |
| 20260504081957 | 6 | 76 | 0.0 | 1.6 | 0.00 | 0.00 | 0.00 | 79 | 1012.7 |
| 20260504081455 | 6 | 76 | 0.0 | 0.0 | 0.00 | 0.00 | 0.00 | 82 | 1012.3 |
| 20260504080949 | 6 | 76 | 0.0 | 1.6 | 0.00 | 0.00 | 0.00 | 81 | 1012.6 |
| 20260504080447 | 6 | 76 | 0.0 | 0.0 | 0.00 | 0.00 | 0.00 | 83 | 1012.7 |
| 20260504050253 | 5 | 76 | 0.0 | 0.0 | 0.00 | 0.00 | 0.00 | 76 | 1013.3 |
| 20260504045750 | 5 | 76 | 0.0 | 0.0 | 0.00 | 0.00 | 0.00 | 81 | 1013.3 |
| 20260504045245 | 5 | 76 | 0.0 | 0.0 | 0.00 | 0.00 | 0.00 | 80 | 1013.4 |
| 20260504044743 | 4 | 76 | 0.0 | 0.0 | 0.00 | 0.00 | 0.00 | 80 | 1013.4 |
| 20260504044240 | 4 | 76 | 0.0 | 0.0 | 0.00 | 0.00 | 0.00 | 79 | 1013.5 |
| 20260504043737 | 4 | 76 | 0.0 | 0.0 | 0.00 | 0.00 | 0.00 | 78 | 1013.4 |
| 20260504043234 | 4 | 76 | 0.0 | 0.0 | 0.00 | 0.00 | 0.00 | 78 | 1013.4 |
| 20260504042732 | 3 | 76 | 0.0 | 0.0 | 0.00 | 0.00 | 0.00 | 78 | 1013.5 |
| 20260504042228 | 3 | 76 | 0.0 | 0.0 | 0.00 | 0.00 | 0.00 | 78 | 1013.3 |
| 20260504041724 | 3 | 76 | 0.0 | 0.0 | 0.00 | 0.00 | 0.00 | 79 | 1013.5 |
| 20260504041220 | 3 | 76 | 0.0 | 0.0 | 0.00 | 0.00 | 0.00 | 77 | 1013.5 |
| 20260504040716 | 3 | 76 | 0.0 | 1.6 | 0.00 | 0.00 | 0.00 | 76 | 1013.4 |
| 20260504040214 | 3 | 76 | 1.6 | 1.6 | 0.00 | 0.00 | 0.00 | 77 | 1013.5 |
| 20260504035710 | 3 | 76 | 0.0 | 0.0 | 0.00 | 0.00 | 0.00 | 76 | 1013.7 |
| 20260504035208 | 3 | 76 | 1.6 | 1.6 | 0.00 | 0.00 | 0.00 | 76 | 1013.6 |
| 20260504034705 | 3 | 76 | 1.6 | 1.6 | 0.00 | 0.00 | 0.00 | 75 | 1013.7 |
| 20260504034202 | 4 | 76 | 0.0 | 1.6 | 0.00 | 0.00 | 0.00 | 75 | 1013.3 |
| 20260504033659 | 4 | 76 | 1.6 | 1.6 | 0.00 | 0.00 | 0.00 | 75 | 1013.3 |
| 20260504033156 | 4 | 76 | 1.6 | 1.6 | 0.00 | 0.00 | 0.00 | 74 | 1013.4 |
| 20260504032653 | 4 | 76 | 0.0 | 1.6 | 0.00 | 0.00 | 0.00 | 75 | 1013.3 |
| 20260504032150 | 4 | 76 | 1.6 | 1.6 | 0.00 | 0.00 | 0.00 | 75 | 1013.5 |
| 20260504031647 | 4 | 76 | 1.6 | 1.6 | 0.00 | 0.00 | 0.00 | 76 | 1013.4 |
| 20260504031143 | 4 | 76 | 0.0 | 1.6 | 0.00 | 0.00 | 0.00 | 74 | 1013.3 |
| 20260504030640 | 4 | 76 | 1.6 | 1.6 | 0.00 | 0.00 | 0.00 | 75 | 1013.3 |
| 20260504030137 | 5 | 76 | 1.6 | 1.6 | 0.00 | 0.00 | 0.00 | 73 | 1013.2 |
| 20260504025634 | 5 | 76 | 1.6 | 1.6 | 0.00 | 0.00 | 0.00 | 73 | 1013.3 |
| 20260504025131 | 5 | 76 | 1.6 | 1.6 | 0.00 | 0.00 | 0.00 | 74 | 1013.1 |
| 20260504024628 | 5 | 76 | 1.6 | 1.6 | 0.00 | 0.00 | 0.00 | 74 | 1013.4 |
| 20260504024125 | 5 | 76 | 1.6 | 1.6 | 0.00 | 0.00 | 0.00 | 74 | 1013.5 |
| 20260504023621 | 5 | 76 | 1.6 | 1.6 | 0.00 | 0.00 | 0.00 | 74 | 1013.3 |
| 20260504023117 | 5 | 76 | 1.6 | 1.6 | 0.00 | 0.00 | 0.00 | 72 | 1013.4 |
| 20260504022614 | 5 | 76 | 1.6 | 1.6 | 0.00 | 0.00 | 0.00 | 72 | 1013.3 |
| 20260504022109 | 5 | 76 | 1.6 | 1.6 | 0.00 | 0.00 | 0.00 | 71 | 1013.3 |
| 20260504021608 | 5 | 76 | 0.0 | 1.6 | 0.00 | 0.00 | 0.00 | 72 | 1013.3 |
| 20260504021104 | 5 | 76 | 0.0 | 0.0 | 0.00 | 0.00 | 0.00 | 71 | 1013.4 |
| 20260504020601 | 5 | 76 | 0.0 | 1.6 | 0.00 | 0.00 | 0.00 | 70 | 1013.1 |
| 20260504020057 | 5 | 77 | 1.6 | 1.6 | 0.00 | 0.00 | 0.00 | 71 | 1013.2 |
| 20260504015554 | 5 | 76 | 1.6 | 1.6 | 0.00 | 0.00 | 0.00 | 71 | 1013.0 |
| 20260504015050 | 5 | 76 | 0.0 | 0.0 | 0.00 | 0.00 | 0.00 | 69 | 1013.1 |
| 20260504014546 | 5 | 76 | 1.6 | 1.6 | 0.00 | 0.00 | 0.00 | 69 | 1013.0 |
| 20260504014043 | 6 | 76 | 1.6 | 1.6 | 0.00 | 0.00 | 0.00 | 70 | 1012.9 |
| 20260504013541 | 6 | 77 | 1.6 | 1.6 | 0.00 | 0.00 | 0.00 | 68 | 1012.9 |
| 20260504013038 | 6 | 77 | 1.6 | 1.6 | 0.00 | 0.00 | 0.00 | 68 | 1012.9 |
| 20260504012536 | 6 | 77 | 1.6 | 1.6 | 0.00 | 0.00 | 0.00 | 66 | 1012.6 |
| 20260504012033 | 6 | 78 | 1.6 | 1.6 | 0.00 | 0.00 | 0.00 | 68 | 1012.7 |
| 20260504011529 | 6 | 81 | 1.6 | 1.6 | 0.00 | 0.00 | 0.00 | 67 | 1012.6 |
| 20260504011020 | 6 | 89 | 1.6 | 1.6 | 0.00 | 0.00 | 0.00 | 66 | 1012.7 |
| 20260504010515 | 6 | 94 | 0.0 | 1.6 | 0.00 | 0.00 | 0.00 | 66 | 1012.6 |
| 20260504010012 | 7 | 96 | 1.6 | 1.6 | 0.00 | 0.00 | 0.00 | 67 | 1012.3 |
| 20260504005509 | 7 | 91 | 1.6 | 1.6 | 0.00 | 0.00 | 0.00 | 66 | 1012.7 |
| 20260504005007 | 7 | 87 | 0.0 | 0.0 | 0.00 | 0.00 | 0.00 | 66 | 1012.3 |
| 20260504004504 | 7 | 82 | 1.6 | 1.6 | 0.00 | 0.00 | 0.00 | 64 | 1012.6 |
| 20260504004001 | 7 | 85 | 1.6 | 1.6 | 0.00 | 0.00 | 0.00 | 63 | 1012.5 |
| 20260504003456 | 8 | 86 | 0.0 | 0.0 | 0.00 | 0.00 | 0.00 | 61 | 1012.6 |
| 20260504002954 | 8 | 86 | 1.6 | 1.6 | 0.00 | 0.00 | 0.00 | 62 | 1012.2 |
| 20260504002451 | 8 | 90 | 1.6 | 1.6 | 0.00 | 0.00 | 0.00 | 59 | 1012.5 |
| 20260504001948 | 8 | 78 | 1.6 | 1.6 | 0.00 | 0.00 | 0.00 | 56 | 1012.5 |
| 20260504001445 | 8 | 80 | 1.6 | 1.6 | 0.00 | 0.00 | 0.00 | 54 | 1012.5 |
| 20260504000942 | 9 | 81 | 0.0 | 1.6 | 0.00 | 0.00 | 0.00 | 53 | 1012.5 |
| 20260504000439 | 10 | 81 | 1.6 | 1.6 | 0.00 | 0.00 | 0.00 | 52 | 1012.5 |
| 20260503235936 | 10 | 80 | 1.6 | 1.6 | 0.00 | 0.00 | 0.00 | 52 | 1012.2 |
| 20260503235434 | 10 | 81 | 1.6 | 1.6 | 0.00 | 0.00 | 0.00 | 51 | 1012.3 |
| 20260503234931 | 10 | 81 | 0.0 | 0.0 | 0.00 | 0.00 | 0.00 | 52 | 1012.1 |
| 20260503234429 | 11 | 81 | 0.0 | 0.0 | 0.00 | 0.00 | 0.00 | 55 | 1012.1 |
| 20260503233927 | 11 | 81 | 0.0 | 0.0 | 0.00 | 0.00 | 0.00 | 52 | 1012.2 |
| 20260503233423 | 11 | 80 | 0.0 | 0.0 | 0.00 | 0.00 | 0.00 | 46 | 1012.3 |
| 20260503232920 | 12 | 55 | 0.0 | 0.0 | 0.00 | 0.00 | 0.00 | 45 | 1012.2 |
| 20260503232417 | 12 | 120 | 0.0 | 0.0 | 0.00 | 0.00 | 0.00 | 48 | 1012.1 |
| 20260503231914 | 12 | 90 | 0.0 | 0.0 | 0.00 | 0.00 | 0.00 | 45 | 1012.2 |
| 20260503231412 | 13 | 88 | 0.0 | 0.0 | 0.00 | 0.00 | 0.00 | 45 | 1012.2 |
| 20260503230908 | 13 | 155 | 0.0 | 0.0 | 0.00 | 0.00 | 0.00 | 35 | 1012.2 |
| 20260503230404 | 13 | 208 | 1.6 | 1.6 | 0.00 | 0.00 | 0.00 | 36 | 1012.1 |
| 20260503225902 | 13 | 167 | 1.6 | 3.2 | 0.00 | 0.00 | 0.00 | 33 | 1012.1 |
| 20260503225358 | 13 | 120 | 0.0 | 0.0 | 0.00 | 0.00 | 0.00 | 35 | 1012.1 |
| 20260503224854 | 14 | 162 | 1.6 | 1.6 | 0.00 | 0.00 | 0.00 | 33 | 1012.0 |
| 20260503224351 | 14 | 184 | 1.6 | 1.6 | 0.00 | 0.00 | 0.00 | 33 | 1012.0 |
| 20260503223849 | 14 | 158 | 1.6 | 1.6 | 0.00 | 0.00 | 0.00 | 31 | 1012.0 |
| 20260503223347 | 15 | 83 | 1.6 | 3.2 | 0.00 | 0.00 | 0.00 | 32 | 1012.2 |
| 20260503222842 | 14 | 165 | 0.0 | 1.6 | 0.00 | 0.00 | 0.00 | 34 | 1011.9 |
| 20260503222341 | 14 | 138 | 1.6 | 1.6 | 0.00 | 0.00 | 0.00 | 34 | 1012.1 |
| 20260503221838 | 14 | 187 | 4.8 | 4.8 | 0.00 | 0.00 | 0.00 | 32 | 1012.0 |
| 20260503221337 | 14 | 251 | 6.4 | 6.4 | 0.00 | 0.00 | 0.00 | 32 | 1012.1 |
| 20260503220832 | 14 | 165 | 0.0 | 1.6 | 0.00 | 0.00 | 0.00 | 32 | 1012.1 |
| 20260503220330 | 15 | 354 | 1.6 | 1.6 | 0.00 | 0.00 | 0.00 | 32 | 1012.0 |
| 20260503215827 | 15 | 39 | 1.6 | 1.6 | 0.00 | 0.00 | 0.00 | 33 | 1012.1 |
| 20260503215324 | 14 | 276 | 4.8 | 4.8 | 0.00 | 0.00 | 0.00 | 31 | 1012.2 |
| 20260503214821 | 15 | 47 | 0.0 | 0.0 | 0.00 | 0.00 | 0.00 | 32 | 1012.2 |
| 20260503214319 | 15 | 45 | 1.6 | 1.6 | 0.00 | 0.00 | 0.00 | 31 | 1012.3 |
| 20260503213816 | 15 | 172 | 4.8 | 6.4 | 0.00 | 0.00 | 0.00 | 31 | 1012.2 |
| 20260503213313 | 15 | 107 | 3.2 | 3.2 | 0.00 | 0.00 | 0.00 | 34 | 1012.2 |
| 20260503212809 | 15 | 63 | 1.6 | 1.6 | 0.00 | 0.00 | 0.00 | 31 | 1012.2 |
| 20260503212307 | 15 | 185 | 3.2 | 3.2 | 0.00 | 0.00 | 0.00 | 31 | 1012.1 |
| 20260503211759 | 15 | 201 | 3.2 | 3.2 | 0.00 | 0.00 | 0.00 | 32 | 1011.9 |
| 20260503211256 | 15 | 242 | 3.2 | 4.8 | 0.00 | 0.00 | 0.00 | 32 | 1012.2 |
| 20260503210755 | 15 | 98 | 1.6 | 3.2 | 0.00 | 0.00 | 0.00 | 34 | 1012.2 |
| 20260503210253 | 15 | 150 | 1.6 | 3.2 | 0.00 | 0.00 | 0.00 | 31 | 1012.3 |
| 20260503205748 | 15 | 50 | 1.6 | 1.6 | 0.00 | 0.00 | 0.00 | 32 | 1012.2 |
| 20260503205245 | 15 | 327 | 1.6 | 1.6 | 0.00 | 0.00 | 0.00 | 30 | 1012.2 |
| 20260503204742 | 15 | 180 | 3.2 | 3.2 | 0.00 | 0.00 | 0.00 | 29 | 1012.3 |
| 20260503204239 | 15 | 260 | 8.0 | 11.3 | 0.00 | 0.00 | 0.00 | 30 | 1012.3 |
| 20260503203737 | 15 | 246 | 8.0 | 11.3 | 0.00 | 0.00 | 0.00 | 29 | 1012.2 |
| 20260503203234 | 15 | 122 | 0.0 | 1.6 | 0.00 | 0.00 | 0.00 | 32 | 1012.2 |
| 20260503202731 | 15 | 321 | 3.2 | 4.8 | 0.00 | 0.00 | 0.00 | 32 | 1012.6 |
| 20260503202229 | 15 | 91 | 1.6 | 1.6 | 0.00 | 0.00 | 0.00 | 34 | 1012.3 |
| 20260503201727 | 16 | 255 | 4.8 | 4.8 | 0.00 | 0.00 | 0.00 | 30 | 1012.2 |
| 20260503201224 | 16 | 44 | 1.6 | 3.2 | 0.00 | 0.00 | 0.00 | 30 | 1012.3 |
| 20260503200720 | 15 | 331 | 1.6 | 3.2 | 0.00 | 0.00 | 0.00 | 32 | 1012.6 |
| 20260503200217 | 15 | 220 | 3.2 | 3.2 | 0.00 | 0.00 | 0.00 | 32 | 1012.6 |
| 20260503195713 | 15 | 160 | 3.2 | 4.8 | 0.00 | 0.00 | 0.00 | 29 | 1012.5 |
| 20260503195210 | 15 | 187 | 4.8 | 4.8 | 0.00 | 0.00 | 0.00 | 32 | 1012.7 |
| 20260503194708 | 15 | 99 | 1.6 | 1.6 | 0.00 | 0.00 | 0.00 | 31 | 1013.0 |
| 20260503194203 | 16 | 296 | 3.2 | 3.2 | 0.00 | 0.00 | 0.00 | 29 | 1012.9 |
| 20260503193700 | 15 | 127 | 4.8 | 6.4 | 0.00 | 0.00 | 0.00 | 31 | 1012.9 |
| 20260503193156 | 15 | 148 | 1.6 | 3.2 | 0.00 | 0.00 | 0.00 | 31 | 1013.1 |
| 20260503192651 | 16 | 237 | 1.6 | 3.2 | 0.00 | 0.00 | 0.00 | 30 | 1013.1 |
| 20260503192147 | 16 | 255 | 4.8 | 4.8 | 0.00 | 0.00 | 0.00 | 29 | 1013.1 |
| 20260503191644 | 16 | 286 | 3.2 | 6.4 | 0.00 | 0.00 | 0.00 | 30 | 1013.1 |
| 20260503191141 | 15 | 247 | 1.6 | 3.2 | 0.00 | 0.00 | 0.00 | 31 | 1013.2 |
| 20260503190638 | 15 | 16 | 1.6 | 3.2 | 0.00 | 0.00 | 0.00 | 32 | 1013.2 |
| 20260503190135 | 15 | 69 | 1.6 | 3.2 | 0.00 | 0.00 | 0.00 | 30 | 1013.4 |
| 20260503185631 | 15 | 86 | 3.2 | 4.8 | 0.00 | 0.00 | 0.00 | 30 | 1013.4 |
| 20260503185126 | 15 | 268 | 3.2 | 4.8 | 0.00 | 0.00 | 0.00 | 29 | 1013.5 |
| 20260503184622 | 16 | 271 | 3.2 | 4.8 | 0.00 | 0.00 | 0.00 | 30 | 1013.6 |
| 20260503184118 | 16 | 311 | 3.2 | 3.2 | 0.00 | 0.00 | 0.00 | 29 | 1013.6 |
| 20260503183615 | 15 | 0 | 4.8 | 4.8 | 0.00 | 0.00 | 0.00 | 29 | 1013.3 |
| 20260503183112 | 15 | 187 | 4.8 | 6.4 | 0.00 | 0.00 | 0.00 | 30 | 1013.6 |
| 20260503182611 | 15 | 179 | 1.6 | 1.6 | 0.00 | 0.00 | 0.00 | 31 | 1013.6 |
| 20260503182109 | 15 | 246 | 3.2 | 3.2 | 0.00 | 0.00 | 0.00 | 32 | 1013.5 |
| 20260503181605 | 15 | 268 | 3.2 | 4.8 | 0.00 | 0.00 | 0.00 | 30 | 1013.7 |
| 20260503181102 | 15 | 305 | 3.2 | 4.8 | 0.00 | 0.00 | 0.00 | 28 | 1013.8 |
| 20260503180559 | 14 | 203 | 4.8 | 6.4 | 0.00 | 0.00 | 0.00 | 30 | 1013.8 |
| 20260503180056 | 16 | 297 | 6.4 | 6.4 | 0.00 | 0.00 | 0.00 | 28 | 1013.7 |
| 20260503175553 | 14 | 190 | 3.2 | 3.2 | 0.00 | 0.00 | 0.00 | 30 | 1013.9 |
| 20260503175050 | 15 | 172 | 1.6 | 1.6 | 0.00 | 0.00 | 0.00 | 32 | 1013.8 |
| 20260503174548 | 14 | 252 | 3.2 | 3.2 | 0.00 | 0.00 | 0.00 | 35 | 1013.8 |
| 20260503174044 | 13 | 45 | 3.2 | 3.2 | 0.00 | 0.00 | 0.00 | 32 | 1013.8 |
| 20260503173539 | 12 | 35 | 8.0 | 9.7 | 0.00 | 0.00 | 0.00 | 34 | 1014.0 |
| 20260503173036 | 12 | 244 | 3.2 | 3.2 | 0.00 | 0.00 | 0.00 | 34 | 1014.1 |
| 20260503172533 | 13 | 48 | 1.6 | 1.6 | 0.00 | 0.00 | 0.00 | 33 | 1014.1 |
| 20260503172030 | 12 | 163 | 1.6 | 1.6 | 0.00 | 0.00 | 0.00 | 37 | 1014.1 |
| 20260503171527 | 12 | 182 | 4.8 | 6.4 | 0.00 | 0.00 | 0.00 | 35 | 1014.2 |
| 20260503171024 | 13 | 223 | 1.6 | 3.2 | 0.00 | 0.00 | 0.00 | 36 | 1014.2 |
| 20260503170520 | 13 | 130 | 3.2 | 3.2 | 0.00 | 0.00 | 0.00 | 34 | 1014.3 |
| 20260503150907 | 8 | 189 | 4.8 | 4.8 | 0.00 | 0.00 | 0.00 | 46 | 1015.5 |
| 20260503150403 | 9 | 279 | 6.4 | 9.7 | 0.00 | 0.00 | 0.00 | 44 | 1015.3 |
| 20260503131251 | 7 | 170 | 1.6 | 3.2 | 0.00 | 0.00 | 0.00 | 56 | 1015.2 |
| 20260503130748 | 6 | 247 | 0.0 | 1.6 | 0.00 | 0.00 | 0.00 | 57 | 1015.2 |
| 20260503130245 | 6 | 236 | 4.8 | 4.8 | 0.00 | 0.00 | 0.00 | 59 | 1015.2 |
| 20260503120212 | 5 | 309 | 0.0 | 1.6 | 0.00 | 0.00 | 0.00 | 72 | 1015.2 |
| 20260503110638 | 1 | 102 | 0.0 | 1.6 | 0.00 | 0.00 | 0.00 | 88 | 1014.4 |
| 20260503110136 | 1 | 111 | 0.0 | 0.0 | 0.00 | 0.00 | 0.00 | 88 | 1014.2 |